Flag for Germany Weather past 2 weeks in Schorndorf, Baden-Württemberg, Germany

Now
45 °F

Passing clouds.


Feels Like: 45 °F
Forecast: 30 / 60 °F
Wind: 1 mph from Northeast

Location: Stuttgart-Echterdingen


UV Index: 3 (Moderate)

Visibility: 38 mi


Pressure: 30.37 "Hg

Humidity: 55%

Dew point: 29 °F

Location of SchorndorfLocation

Historic Weather in Schorndorf

°F

Schorndorf temperature yesterday

Maximum temperature yesterday: 45 °F (at 6:00 PM)
Minimum temperature yesterday: 37 °F (at 5:00 AM)
Average temperature yesterday: 42 °F

Past Weeks' High & Low Weather Summary

 TemperatureHumidityPressure
High70 °F (Apr 7, 4:00 PM)93% (Apr 6, 1:00 AM)30.42 "Hg (Apr 6, 1:00 AM)
Low33 °F (Apr 16, 6:00 AM)27% (Apr 4, 6:00 PM)29.62 "Hg (Apr 3, 6:00 PM)
Average53 °F62%30.03 "Hg
* Reported Apr 1 8:00 PM — Apr 16 8:00 PM, Schorndorf, Weather by CustomWeather, © 2014

Note: Actual official high and low records may vary slightly from our data, if they occured in-between our weather recording intervals... More about our weather records

Advertising

Historic Weather Conditions — Data for Previous 24 hours

 ConditionsComfort  
Time TempWeatherWind HumidityBarometerVisibility
8:00 PM
Apr 16
49 °FScattered clouds.3 mph48%30.35 "Hg37 mi
7:00 PM52 °FPartly sunny.2 mph42%30.35 "Hg37 mi
6:00 PM51 °FPartly sunny.3 mph42%30.35 "Hg37 mi
5:00 PM51 °FPartly sunny.5 mph43%30.36 "Hg37 mi
4:00 PM50 °FScattered clouds.5 mph45%30.37 "Hg37 mi
3:00 PM49 °FPartly sunny.5 mph47%30.39 "Hg37 mi
2:00 PM49 °FPartly sunny.6 mph51%30.38 "Hg28 mi
1:00 PM47 °FScattered clouds.5 mph54%30.40 "Hg25 mi
12:00 PM46 °FPassing clouds.3 mph57%30.40 "Hg25 mi
11:00 AM45 °FPassing clouds.3 mph65%30.41 "Hg22 mi
10:00 AM42 °FPassing clouds.3 mph69%30.42 "Hg19 mi
9:00 AM39 °FPassing clouds.1 mph76%30.42 "Hg19 mi
8:00 AM37 °FPassing clouds.1 mph80%30.41 "Hg22 mi
7:00 AM33 °FPassing clouds.1 mph84%30.40 "Hg22 mi
6:00 AM33 °FPassing clouds.1 mph85%30.39 "Hg19 mi
5:00 AM34 °FPassing clouds.No wind82%30.39 "Hg25 mi
4:00 AM35 °FPassing clouds.1 mph78%30.37 "Hg25 mi
3:00 AM38 °FPassing clouds.2 mph70%30.36 "Hg25 mi
12:00 AM41 °FOvercast.2 mph63%30.34 "Hg25 mi
10:00 PM
Apr 15
42 °FOvercast.2 mph57%30.33 "Hg31 mi
9:00 PM43 °FOvercast.3 mph54%30.31 "Hg31 mi
Weather by CustomWeather, © 2014

See weather overview